Wind_Speed
27 31 36 39 43 46 49 49 47 48 49 46 45 44 45 45 44 42 39 36 33 28 27 24 24 25 22 21 19 18 16 15 15
24 30 34 39 42 46 51 51 50 49 48 47 48 45 43 45 46 45 43 39 34 32 30 27 26 26 27 24 22 21 18 16 15
26 28 29 33 37 43 50 51 52 52 50 47 46 47 45 44 44 44 44 41 37 33 32 29 29 28 27 26 24 22 21 19 17
28 28 30 32 36 41 45 44 47 53 54 53 51 47 47 45 47 47 46 45 40 35 33 31 31 31 29 29 27 26 24 22 20
21 24 30 30 31 31 32 42 45 49 51 53 54 52 50 48 46 47 47 46 42 38 35 33 31 32 33 33 31 30 27 26 25
21 21 25 27 23 28 35 41 45 47 47 49 49 53 55 54 53 51 50 47 45 41 38 36 35 33 36 35 36 34 31 29 27
16 17 21 18 21 26 30 36 41 44 46 46 46 47 50 53 54 54 52 49 46 44 41 39 37 37 35 36 38 38 35 33 31
19 21 23 21 19 19 23 30 37 41 44 45 45 46 47 47 48 50 50 49 46 44 44 42 40 40 38 38 39 41 40 38 36
29 24 26 24 23 21 20 22 28 37 41 45 46 48 46 45 45 47 48 47 46 44 45 44 44 44 42 41 43 44 43 41 41
30 30 26 28 29 29 28 27 29 32 36 43 46 47 46 46 45 46 44 45 44 45 45 45 47 46 46 46 45 47 46 45 43
37 39 39 40 38 38 37 36 33 35 38 40 42 45 45 45 46 46 45 44 44 46 46 47 49 49 48 48 47 48 48 46 44
41 45 47 46 38 34 22 25 29 34 37 42 42 42 44 45 45 46 47 46 45 47 47 48 50 50 49 49 49 49 47 45 46
34 37 35 34 29 27 27 25 24 28 33 37 39 39 41 42 44 45 46 45 47 46 47 47 48 50 51 51 49 49 48 44 43
25 26 26 24 24 24 23 22 21 24 27 31 31 30 32 36 39 39 40 41 42 41 42 41 48 51 51 51 51 50 49 47 45
24 20 17 18 20 20 18 14 17 21 24 24 25 25 27 29 31 33 33 36 37 36 37 40 45 46 49 48 53 50 49 48 44
13 13 13 13 15 16 12 10 12 16 17 17 15 14 17 21 23 25 28 30 32 35 40 44 44 40 45 46 48 45 47 50 46
14 18 21 20 21 22 19 14 12 10 9 9 10 11 12 14 17 21 25 26 27 26 27 45 46 40 42 44 43 43 47 36 31
18 21 26 25 23 23 22 18 15 13 10 8 6 4 4 8 13 17 22 26 28 35 44 50 45 45 43 43 42 43 35 30 30
23 22 23 24 20 19 17 14 10 7 6 4 2 3 5 7 9 13 18 25 28 33 37 40 41 38 39 45 45 45 34 29 34
23 19 20 20 18 16 13 11 9 7 5 3 1 2 4 7 9 15 20 24 28 33 36 39 37 36 39 41 41 39 34 32 34
Wind_Direction
217 214 217 217 217 221 229 231 231 231 228 227 229 230 231 231 234 236 236 238 238 236 236 236 229 224 230 240 250 250 250 242 230
215 219 218 221 218 222 230 232 232 232 234 231 231 228 230 233 234 235 237 237 238 237 238 237 236 234 235 237 242 245 242 239 232
219 224 224 223 221 220 227 235 235 233 234 235 232 231 230 232 234 235 236 238 238 237 237 235 237 234 234 233 236 236 236 238 232
218 222 227 226 225 230 231 227 230 235 234 233 234 234 235 234 236 235 235 237 237 236 237 234 234 234 233 231 233 234 235 235 234
235 229 234 230 232 228 222 223 224 233 237 237 235 233 233 233 235 238 238 237 237 234 234 233 233 234 233 231 231 233 234 234 233
249 254 257 245 236 227 232 231 229 227 236 237 238 236 235 235 236 237 239 239 237 236 234 234 232 234 232 230 228 231 233 234 233
263 259 244 246 241 242 244 238 235 233 237 235 234 234 235 235 236 238 239 240 238 237 234 233 234 234 236 231 229 230 234 233 231
288 282 267 247 238 243 245 243 241 239 239 236 233 233 236 239 239 238 239 240 239 236 234 232 233 235 236 235 232 230 232 231 232
277 268 268 252 263 245 245 245 245 242 237 236 234 234 238 239 239 238 237 237 237 236 234 232 231 232 234 236 233 231 231 232 233
252 261 263 270 270 257 266 265 258 244 243 237 235 236 237 237 239 239 239 237 236 235 233 231 231 231 232 235 236 234 232 231 234
250 254 258 264 266 270 272 268 255 250 241 238 237 237 236 237 237 239 239 235 234 234 231 229 230 231 231 235 238 238 235 234 235
255 259 262 268 269 270 269 256 261 249 237 237 234 237 239 239 240 240 239 238 235 232 230 230 230 234 236 236 238 241 241 238 237
262 260 261 263 261 260 259 265 251 240 236 234 236 240 245 245 244 242 242 243 241 235 233 232 232 233 237 239 241 244 245 243 242
275 270 257 248 247 241 255 257 240 231 231 233 240 247 247 248 249 247 247 246 243 242 241 235 232 233 236 240 243 244 246 244 242
265 249 237 228 227 229 228 240 224 223 226 234 237 244 251 255 257 253 245 243 244 243 245 243 241 238 238 239 241 243 248 247 244
216 197 189 177 181 184 190 193 185 200 209 215 229 240 242 243 246 249 245 245 240 243 240 243 240 240 240 246 248 249 249 249 246
177 165 153 148 142 135 133 141 155 170 185 200 216 228 237 241 240 242 242 236 239 227 240 246 238 231 241 241 242 243 246 238 243
144 140 135 133 129 125 122 120 120 119 117 115 125 147 200 235 243 241 241 238 236 237 235 240 240 246 239 232 234 234 239 240 213
130 128 126 122 119 116 115 118 122 126 134 148 202 249 253 253 249 248 235 239 245 243 240 241 245 250 249 240 248 245 237 239 209
117 112 109 108 108 105 106 107 111 112 109 101 62 287 272 263 258 260 255 251 249 244 243 245 247 250 247 241 237 232 225 192 170
Height
1446 1454 1458 1462 1466 1471 1475 1481 1487 1492 1497 1503 1509 1514 1519 1524 1530 1534 1539 1544 1548 1551 1554 1557 1560 1564 1567 1570 1573 1574 1576 1577 1578
1438 1441 1448 1451 1456 1461 1465 1472 1477 1482 1488 1494 1500 1505 1511 1516 1521 1526 1530 1536 1540 1545 1549 1552 1556 1559 1562 1565 1567 1570 1572 1574 1576
1429 1432 1438 1442 1447 1450 1454 1459 1466 1474 1480 1485 1490 1497 1502 1507 1513 1518 1523 1528 1533 1538 1542 1547 1550 1553 1556 1560 1562 1565 1568 1570 1571
1420 1425 1427 1432 1436 1439 1443 1452 1458 1462 1468 1475 1482 1488 1494 1499 1504 1508 1514 1519 1524 1530 1535 1539 1544 1547 1550 1554 1557 1560 1562 1564 1566
1415 1419 1420 1424 1428 1434 1440 1442 1447 1450 1456 1462 1468 1476 1484 1489 1495 1500 1503 1508 1515 1522 1526 1532 1536 1540 1543 1547 1551 1553 1556 1558 1560
1409 1413 1417 1420 1425 1427 1428 1432 1436 1440 1444 1450 1458 1465 1471 1478 1483 1487 1492 1498 1505 1512 1518 1523 1528 1532 1535 1539 1543 1546 1549 1552 1554
1405 1407 1411 1413 1416 1418 1420 1423 1426 1431 1435 1442 1448 1453 1459 1464 1469 1475 1481 1488 1495 1502 1508 1514 1519 1523 1527 1531 1535 1539 1542 1545 1547
1403 1403 1405 1407 1410 1412 1414 1417 1420 1424 1428 1433 1439 1443 1448 1451 1458 1465 1471 1477 1483 1491 1497 1503 1509 1514 1518 1522 1526 1530 1533 1536 1539
1400 1399 1400 1402 1404 1407 1408 1410 1411 1414 1418 1422 1428 1432 1436 1442 1448 1453 1458 1465 1471 1479 1485 1492 1498 1502 1507 1511 1514 1517 1522 1527 1529
1394 1393 1394 1397 1399 1400 1402 1404 1405 1405 1407 1414 1418 1422 1428 1434 1439 1443 1448 1455 1462 1466 1472 1481 1485 1491 1495 1498 1502 1506 1511 1515 1519
1388 1388 1388 1390 1392 1393 1393 1395 1396 1398 1402 1404 1409 1414 1421 1427 1431 1434 1438 1443 1449 1454 1460 1466 1473 1478 1483 1489 1492 1495 1499 1505 1511
1380 1380 1381 1382 1384 1385 1384 1385 1387 1390 1394 1398 1403 1408 1412 1415 1419 1424 1429 1433 1437 1442 1448 1455 1461 1469 1474 1477 1481 1484 1490 1497 1501
1370 1370 1373 1373 1374 1377 1377 1377 1378 1381 1386 1391 1395 1398 1400 1407 1412 1417 1420 1424 1429 1433 1439 1444 1451 1456 1462 1466 1471 1475 1480 1487 1491
1364 1363 1363 1364 1366 1369 1370 1370 1372 1374 1379 1382 1387 1396 1399 1402 1406 1410 1416 1422 1427 1434 1439 1440 1438 1441 1448 1453 1458 1463 1467 1473 1479
1361 1358 1356 1357 1359 1362 1364 1366 1367 1371 1374 1379 1384 1389 1393 1397 1401 1405 1409 1413 1419 1424 1431 1437 1435 1435 1437 1439 1444 1450 1453 1458 1465
1357 1355 1353 1355 1356 1357 1360 1363 1364 1367 1371 1376 1379 1383 1387 1391 1394 1397 1401 1404 1408 1416 1418 1426 1423 1425 1423 1428 1432 1436 1438 1441 1449
1353 1351 1350 1354 1355 1353 1355 1360 1362 1366 1369 1372 1375 1379 1380 1384 1387 1391 1393 1396 1399 1399 1410 1416 1411 1409 1411 1412 1418 1418 1420 1427 1439
1351 1352 1351 1352 1354 1353 1355 1359 1362 1365 1368 1370 1374 1375 1377 1379 1380 1382 1384 1388 1390 1390 1394 1401 1399 1396 1397 1401 1404 1402 1406 1419 1418
1350 1352 1353 1351 1354 1355 1357 1359 1362 1365 1366 1368 1370 1372 1372 1373 1375 1377 1378 1379 1380 1381 1384 1387 1388 1388 1389 1392 1393 1398 1397 1405 1412
1353 1355 1355 1354 1354 1355 1357 1359 1360 1363 1364 1364 1365 1366 1367 1367 1367 1370 1370 1372 1373 1374 1376 1376 1376 1377 1379 1384 1386 1390 1388 1395 1407